Location: Holbach
(51.5399°N, 10.6036°E)
Time: 10:26:04
(UTC+00:00)

Cosmos 2082 Rocket - Pass Details

Date: 18 September 2020
Orbit: 834 x 853 km, 71.0° (Epoch: 30 October)

Event Time Altitude Azimuth Distance (km) Brightness Sun altitude
Rises 20:39:01 0° 330° (NNW) 3,394 6.5 -28.0°
Reaches altitude 10° 20:41:30 10° 333° (NNW) 2,456 5.5 -28.3°
Enters shadow 20:46:38 62° 28° (NNE) 938 2.4 -28.8°
